Shannon, Ireland

5:41 AM IST on September 28, 2016 (GMT +0100)
Shannon

Weather History for EINN - October, 2011

Change the Weather History Date:

Sunday, October 23, 2011

  Actual Average Record
Temperature  
Mean Temperature 54 °F -  
Max Temperature 59 °F 55 °F 61 °F (2014)
Min Temperature 48 °F 45 °F 33 °F (2000)
Degree Days  
Heating Degree Days 12    
Growing Degree Days 4 (Base 50)    
Moisture  
Dew Point 51 °F    
Average Humidity 93    
Maximum Humidity 100    
Minimum Humidity 82    
Precipitation  
Precipitation 0.55 in - - ()
Sea Level Pressure  
Sea Level Pressure 29.22 in    
Wind  
Wind Speed 12 mph ()    
Max Wind Speed 25 mph    
Max Gust Speed 36 mph    
Visibility 6.1 miles    
Events Rain    
Averages and records for this station are not official NWS values.
T = Trace of Precipitation, MM = Missing Value Source: Averaged Metar Reports

Daily Weather History Graph

Daily Weather History Graph

Search for Another Location

Airport or City:

Trip Planner

Search our weather history database for the weather conditions in past years. The results will help you decide how hot, cold, wet, or windy it might be!

Date:

Astronomy

Oct. 23, 2011 Rise Set
Actual Time 8:15 AM IST 6:24 PM IST
Civil Twilight 7:39 AM IST 6:59 PM IST
Nautical Twilight 6:59 AM IST 7:39 PM IST
Astronomical Twilight 6:20 AM IST 8:18 PM IST
Moon 3:37 AM IST (10/23) 4:31 PM IST (10/23)
Length of Visible Light 11h 19m
Length of Day
10h 08m
Waning Crescent, 16% of the Moon is Illuminated
Oct 23
Waning Crescent
Oct 26
New
Nov 2
First Quarter
Nov 10
Full
Nov 18
Last Quarter

Hourly Weather History & Observations

Time (IST) Temp. Dew Point Humidity Pressure Visibility Wind Dir Wind Speed Gust Speed Precip Events Conditions
12:00 AM 48.2 °F 46.4 °F 93% 29.47 in 6.2 mi SSE 11.5 mph - N/A   Mostly Cloudy
12:30 AM 48.2 °F 46.4 °F 93% 29.47 in 6.2 mi SSE 10.4 mph - N/A   Mostly Cloudy
1:00 AM 49 °F 46 °F 86% 29.49 in 12 mi SSE 11.2 mph - -   Scattered Clouds
1:00 AM 48.2 °F 46.4 °F 93% 29.47 in 6.2 mi SSE 10.4 mph - N/A   Mostly Cloudy
1:30 AM 48.2 °F 46.4 °F 93% 29.47 in 6.2 mi SE 9.2 mph - N/A   Mostly Cloudy
2:00 AM 50.0 °F 46.4 °F 87% 29.44 in 6.2 mi SE 11.5 mph - N/A   Mostly Cloudy
2:30 AM 50.0 °F 46.4 °F 87% 29.44 in 6.2 mi SE 11.5 mph - N/A   Mostly Cloudy
3:00 AM 50.0 °F 46.4 °F 87% 29.44 in 6.2 mi SE 11.5 mph - N/A   Mostly Cloudy
3:30 AM 50.0 °F 46.4 °F 87% 29.44 in 6.2 mi SSE 10.4 mph - N/A   Mostly Cloudy
4:00 AM 50.0 °F 46.4 °F 87% 29.44 in 6.2 mi SE 11.5 mph - N/A   Mostly Cloudy
4:30 AM 50.0 °F 48.2 °F 94% 29.42 in 6.2 mi SE 10.4 mph - N/A   Mostly Cloudy
5:00 AM 50.0 °F 48.2 °F 94% 29.42 in 6.2 mi SSE 15.0 mph - N/A   Mostly Cloudy
5:30 AM 50.0 °F 48.2 °F 94% 29.42 in 6.2 mi SSE 13.8 mph - N/A   Mostly Cloudy
6:00 AM 50.0 °F 48.2 °F 94% 29.39 in 6.2 mi SSE 12.7 mph - N/A   Mostly Cloudy
6:30 AM 50.0 °F 48.2 °F 94% 29.39 in 6.2 mi SE 10.4 mph - N/A   Mostly Cloudy
7:00 AM 51 °F 47 °F 82% 29.40 in 12 mi SE 8.9 mph - - Rain Light Rain
7:00 AM 50.0 °F 48.2 °F 94% 29.39 in 6.2 mi SE 9.2 mph - N/A Rain Light Rain
7:30 AM 50.0 °F 48.2 °F 94% 29.39 in 6.2 mi SE 11.5 mph - N/A   Mostly Cloudy
8:00 AM 50.0 °F 48.2 °F 94% 29.39 in 6.2 mi SE 11.5 mph - N/A Rain Light Rain
8:30 AM 50.0 °F 48.2 °F 94% 29.36 in 6.2 mi ESE 9.2 mph - N/A Rain Light Rain
9:00 AM 50.0 °F 48.2 °F 94% 29.36 in 6.2 mi SE 8.1 mph - N/A Rain Light Rain
9:30 AM 50.0 °F 48.2 °F 94% 29.36 in 6.2 mi ESE 9.2 mph - N/A Rain Light Rain
10:00 AM 51.8 °F 50.0 °F 94% 29.36 in 6.2 mi East 9.2 mph - N/A Rain Light Rain
10:30 AM 50.0 °F 48.2 °F 94% 29.33 in 5.6 mi East 8.1 mph - N/A Rain Light Rain
11:00 AM 50.0 °F 48.2 °F 94% 29.33 in 6.2 mi East 8.1 mph - N/A Rain Light Rain
11:30 AM 50.0 °F 48.2 °F 94% 29.30 in 6.2 mi East 8.1 mph - N/A Rain Light Rain
12:00 PM 51.8 °F 50.0 °F 94% 29.30 in 6.2 mi East 9.2 mph - N/A   Mostly Cloudy
12:30 PM 51.8 °F 50.0 °F 94% 29.27 in 6.2 mi East 9.2 mph - N/A   Mostly Cloudy
1:00 PM 52 °F 50 °F 92% 29.26 in 9 mi East 8.9 mph - - Rain Light Rain
1:00 PM 51.8 °F 50.0 °F 94% 29.24 in 6.2 mi East 9.2 mph - N/A Rain Light Rain
1:30 PM 51.8 °F 50.0 °F 94% 29.21 in 6.2 mi East 9.2 mph - N/A Rain Light Rain
2:00 PM 51.8 °F 50.0 °F 94% 29.18 in 3.7 mi East 9.2 mph - N/A Rain Light Rain
2:30 PM 51.8 °F 50.0 °F 94% 29.15 in 5.0 mi East 10.4 mph - N/A Rain Light Rain
3:00 PM 51.8 °F 51.8 °F 100% 29.12 in 3.1 mi ENE 9.2 mph - N/A Rain Rain
3:30 PM 51.8 °F 51.8 °F 100% 29.06 in 3.1 mi NE 13.8 mph - N/A Rain Rain
4:00 PM 53.6 °F 51.8 °F 94% 29.03 in 2.8 mi NE 13.8 mph - N/A Rain Light Rain
4:30 PM 57.2 °F 55.4 °F 94% 29.00 in 6.2 mi SE 19.6 mph - N/A   Light Drizzle
5:00 PM 57.2 °F 55.4 °F 94% 28.97 in 6.2 mi SSE 18.4 mph - N/A   Light Drizzle
5:30 PM 57.2 °F 55.4 °F 94% 28.97 in 3.1 mi SSE 15.0 mph - N/A Rain Light Rain
6:00 PM 57.2 °F 57.2 °F 100% 28.97 in 4.3 mi SSE 21.9 mph - N/A Rain Light Rain
6:30 PM 57.2 °F 57.2 °F 100% 28.97 in 4.3 mi SSE 18.4 mph - N/A Rain Light Rain
7:00 PM 58 °F 56 °F 90% 28.97 in 12 mi SSE 17.9 mph - - Rain Light Rain
7:00 PM 59.0 °F 55.4 °F 88% 28.97 in 6.2 mi SSE 18.4 mph - N/A   Mostly Cloudy
7:30 PM 59.0 °F 55.4 °F 88% 28.94 in 6.2 mi SE 18.4 mph - N/A   Mostly Cloudy
8:00 PM 59.0 °F 55.4 °F 88% 28.94 in 6.2 mi SE 19.6 mph - N/A   Light Drizzle
8:30 PM 57.2 °F 55.4 °F 94% 28.91 in 5.0 mi SE 21.9 mph 35.7 mph N/A Rain Light Rain
9:00 PM 57.2 °F 57.2 °F 100% 28.88 in 5.0 mi SE 24.2 mph - N/A Rain Light Rain
9:30 PM 59.0 °F 55.4 °F 88% 28.88 in 5.0 mi SE 25.3 mph - N/A   Light Drizzle
10:00 PM 59.0 °F 55.4 °F 88% 28.88 in 6.2 mi SE 21.9 mph - N/A   Light Drizzle
10:30 PM 59.0 °F 55.4 °F 88% 28.85 in 6.2 mi SE 25.3 mph - N/A   Light Drizzle
11:00 PM 59.0 °F 55.4 °F 88% 28.85 in 6.2 mi SE 24.2 mph - N/A   Mostly Cloudy
11:30 PM 59.0 °F 57.2 °F 94% 28.85 in 5.0 mi SE 25.3 mph - N/A Rain Light Rain